GEC8002 SBKP-SAEZ

Flight info

Callsign GEC8002
Flight time 2h 24m
Altitude 40000
Route ASETA UZ152 UKLEN UN741 PAPIX PAPIX7B
Aircraft MD11/H-SDE1E2E3FGHIJ2J3J4J5M1RWXY/LB1D1

Departure

Time 2026-04-29 18:37
Airport Viracopos International Airport (SBKP)

Arrival

Time 2026-04-29 21:01
Airport Ezeiza International Airport - Ministro Pistarini (SAEZ)
Time Latitude Longitude Altitude Speed Heading
2026-04-29 18:20 -23.01042 -47.13810 2166 ft 0 kts 127°
2026-04-29 18:29 -23.01042 -47.13811 2166 ft 1 kts 127°
2026-04-29 18:29 -23.01040 -47.13814 2156 ft 4 kts 126°
2026-04-29 18:29 -23.01022 -47.13839 2158 ft 4 kts 96°
2026-04-29 18:29 -23.01021 -47.13864 2156 ft 4 kts 81°
2026-04-29 18:30 -23.01028 -47.13890 2156 ft 4 kts 56°
2026-04-29 18:30 -23.01040 -47.13907 2156 ft 0 kts 48°
2026-04-29 18:33 -23.01037 -47.13903 2156 ft 5 kts 48°
2026-04-29 18:33 -23.00976 -47.13840 2157 ft 17 kts 43°
2026-04-29 18:33 -23.00875 -47.13738 2160 ft 21 kts 43°
2026-04-29 18:33 -23.00809 -47.13691 2158 ft 1 kts
2026-04-29 18:34 -23.00785 -47.13709 2157 ft 11 kts 317°
2026-04-29 18:34 -23.00745 -47.13760 2159 ft 16 kts 309°
2026-04-29 18:34 -23.00627 -47.13931 2155 ft 26 kts 307°
2026-04-29 18:34 -23.00516 -47.14078 2154 ft 25 kts 308°
2026-04-29 18:35 -23.00414 -47.14222 2153 ft 24 kts 306°
2026-04-29 18:35 -23.00316 -47.14362 2151 ft 23 kts 306°
2026-04-29 18:35 -23.00220 -47.14496 2152 ft 22 kts 307°
2026-04-29 18:35 -23.00128 -47.14622 2150 ft 20 kts 311°
2026-04-29 18:36 -23.00050 -47.14725 2149 ft 12 kts 310°
2026-04-29 18:36 -22.99992 -47.14776 2152 ft 9 kts 346°
2026-04-29 18:36 -22.99936 -47.14765 2151 ft 8 kts 26°
2026-04-29 18:36 -22.99900 -47.14726 2151 ft 7 kts 51°
2026-04-29 18:37 -22.99884 -47.14673 2151 ft 10 kts 93°
2026-04-29 18:37 -22.99953 -47.14549 2151 ft 47 kts 128°
2026-04-29 18:37 -23.00460 -47.13856 2169 ft 181 kts 130°
2026-04-29 18:37 -23.01336 -47.12672 3265 ft 211 kts 129°
2026-04-29 18:38 -23.02313 -47.11436 4862 ft 220 kts 137°
2026-04-29 18:38 -23.03615 -47.10515 6390 ft 231 kts 159°
2026-04-29 18:38 -23.05268 -47.10178 7273 ft 262 kts 182°
2026-04-29 18:38 -23.07133 -47.10673 7712 ft 285 kts 207°
2026-04-29 18:39 -23.08906 -47.11681 8580 ft 291 kts 213°
2026-04-29 18:39 -23.10458 -47.13038 9515 ft 291 kts 231°
2026-04-29 18:39 -23.11514 -47.14916 10241 ft 299 kts 250°
2026-04-29 18:39 -23.12059 -47.17177 10463 ft 319 kts 262°
2026-04-29 18:40 -23.12394 -47.19605 11289 ft 340 kts 263°
2026-04-29 18:40 -23.12757 -47.22252 12141 ft 360 kts 263°
2026-04-29 18:40 -23.13167 -47.24955 13555 ft 366 kts 262°
2026-04-29 18:40 -23.13620 -47.27696 14808 ft 371 kts 262°
2026-04-29 18:41 -23.15128 -47.36091 18341 ft 384 kts 262°
2026-04-29 18:41 -23.15655 -47.38946 19320 ft 388 kts 262°
2026-04-29 18:42 -23.16191 -47.41831 20297 ft 390 kts 262°
2026-04-29 18:42 -23.16728 -47.44730 21244 ft 394 kts 262°
2026-04-29 18:42 -23.17265 -47.47627 22208 ft 398 kts 263°
2026-04-29 18:42 -23.17813 -47.50588 23232 ft 402 kts 263°
2026-04-29 18:43 -23.18374 -47.53623 24098 ft 407 kts 263°
2026-04-29 18:43 -23.18932 -47.56649 25022 ft 410 kts 262°
2026-04-29 18:43 -23.19488 -47.59660 25930 ft 414 kts 262°
2026-04-29 18:43 -23.20057 -47.62747 26845 ft 418 kts 262°
2026-04-29 18:44 -23.20630 -47.65864 27718 ft 423 kts 262°
2026-04-29 18:44 -23.21211 -47.69018 28534 ft 428 kts 261°
2026-04-29 18:44 -23.21797 -47.72209 29390 ft 433 kts 261°
2026-04-29 18:44 -23.22389 -47.75438 30188 ft 437 kts 261°
2026-04-29 18:45 -23.22986 -47.78695 30825 ft 442 kts 261°
2026-04-29 18:45 -23.23586 -47.81970 31637 ft 440 kts 261°
2026-04-29 18:45 -23.24181 -47.85213 32517 ft 436 kts 262°
2026-04-29 18:45 -23.24770 -47.88434 33362 ft 433 kts 262°
2026-04-29 18:46 -23.25354 -47.91629 34164 ft 430 kts 262°
2026-04-29 18:46 -23.25934 -47.94815 34837 ft 427 kts 262°
2026-04-29 18:46 -23.26509 -47.97977 35490 ft 425 kts 262°
2026-04-29 18:46 -23.27080 -48.01125 36137 ft 423 kts 262°
2026-04-29 18:47 -23.27647 -48.04259 36705 ft 422 kts 262°
2026-04-29 18:47 -23.28206 -48.07381 37083 ft 419 kts 262°
2026-04-29 18:47 -23.28727 -48.10489 37466 ft 417 kts 264°
2026-04-29 18:47 -23.29198 -48.13591 37829 ft 416 kts 264°
2026-04-29 18:48 -23.30092 -48.19773 37957 ft 410 kts 264°
2026-04-29 18:48 -23.30972 -48.25873 37969 ft 407 kts 264°
2026-04-29 18:49 -23.31880 -48.31934 37970 ft 407 kts 262°
2026-04-29 18:49 -23.33602 -48.37830 37970 ft 414 kts 249°
2026-04-29 18:50 -23.36888 -48.43035 37971 ft 429 kts 233°
2026-04-29 18:50 -23.41582 -48.47185 37960 ft 440 kts 221°
2026-04-29 18:51 -23.46774 -48.50771 37965 ft 442 kts 220°
2026-04-29 18:51 -23.51964 -48.54360 37979 ft 440 kts 221°
2026-04-29 18:52 -23.57086 -48.58002 37983 ft 439 kts 221°
2026-04-29 18:52 -23.62186 -48.61673 37979 ft 439 kts 221°
2026-04-29 18:53 -23.67282 -48.65351 37997 ft 439 kts 221°
2026-04-29 18:53 -23.72379 -48.69029 37988 ft 439 kts 221°
2026-04-29 18:54 -23.77476 -48.72711 37987 ft 439 kts 221°
2026-04-29 18:54 -23.82576 -48.76397 38000 ft 439 kts 222°
2026-04-29 18:55 -23.87668 -48.80081 37994 ft 439 kts 222°
2026-04-29 18:55 -23.92725 -48.83744 38000 ft 439 kts 222°
2026-04-29 18:56 -23.97816 -48.87435 38002 ft 439 kts 222°
2026-04-29 18:56 -24.02914 -48.91134 38002 ft 439 kts 222°
2026-04-29 18:57 -24.08006 -48.94833 38001 ft 439 kts 222°
2026-04-29 18:57 -24.13094 -48.98540 38021 ft 439 kts 223°
2026-04-29 18:58 -24.18171 -49.02246 38011 ft 438 kts 222°
2026-04-29 18:58 -24.23241 -49.05940 38015 ft 438 kts 222°
2026-04-29 18:59 -24.28310 -49.09636 38005 ft 438 kts 223°
2026-04-29 18:59 -24.33385 -49.13341 38013 ft 438 kts 223°
2026-04-29 19:00 -24.38452 -49.17044 38012 ft 437 kts 222°
2026-04-29 19:00 -24.43519 -49.20749 38040 ft 438 kts 223°
2026-04-29 19:01 -24.48585 -49.24458 38016 ft 438 kts 223°
2026-04-29 19:01 -24.53617 -49.28146 38014 ft 438 kts 223°
2026-04-29 19:02 -24.57865 -49.31262 38030 ft 439 kts 223°
2026-04-29 19:02 -24.63771 -49.35599 38021 ft 440 kts 223°
2026-04-29 19:03 -24.68832 -49.39360 38021 ft 438 kts 224°
2026-04-29 19:03 -24.73795 -49.43233 38020 ft 437 kts 225°
2026-04-29 19:04 -24.78741 -49.47132 38023 ft 437 kts 225°
2026-04-29 19:04 -24.82855 -49.50369 38025 ft 437 kts 225°
2026-04-29 19:05 -24.87811 -49.54264 38024 ft 438 kts 225°
2026-04-29 19:05 -24.93589 -49.58807 38024 ft 439 kts 225°
2026-04-29 19:06 -24.97759 -49.62087 38029 ft 439 kts 225°
2026-04-29 19:07 -25.05176 -49.67948 38029 ft 439 kts 225°
2026-04-29 19:07 -25.10134 -49.71909 38034 ft 441 kts 225°
2026-04-29 19:08 -25.15123 -49.75901 38036 ft 441 kts 226°
2026-04-29 19:08 -25.20091 -49.79873 38035 ft 440 kts 226°
2026-04-29 19:09 -25.25056 -49.83841 38036 ft 441 kts 225°
2026-04-29 19:09 -25.30211 -49.87601 38041 ft 445 kts 222°
2026-04-29 19:10 -25.35474 -49.91227 38030 ft 446 kts 222°
2026-04-29 19:10 -25.40702 -49.94826 38043 ft 445 kts 223°
2026-04-29 19:11 -25.45941 -49.98458 38028 ft 445 kts 223°
2026-04-29 19:11 -25.51179 -50.02105 38034 ft 445 kts 223°
2026-04-29 19:12 -25.56427 -50.05744 38040 ft 446 kts 222°
2026-04-29 19:12 -25.61803 -50.09222 38030 ft 448 kts 221°
2026-04-29 19:13 -25.67232 -50.12633 38035 ft 449 kts 220°
2026-04-29 19:13 -25.73355 -50.16484 38030 ft 446 kts 222°
2026-04-29 19:14 -25.78744 -50.19892 38043 ft 445 kts 222°
2026-04-29 19:14 -25.84096 -50.23293 38027 ft 442 kts 223°
2026-04-29 19:15 -25.89404 -50.26739 38024 ft 441 kts 223°
2026-04-29 19:15 -25.93812 -50.29620 38025 ft 441 kts 223°
2026-04-29 19:16 -25.99103 -50.33078 38085 ft 442 kts 223°
2026-04-29 19:16 -26.04417 -50.36552 38028 ft 444 kts 222°
2026-04-29 19:17 -26.09745 -50.40035 38026 ft 444 kts 222°
2026-04-29 19:17 -26.15077 -50.43524 38021 ft 445 kts 222°
2026-04-29 19:18 -26.20427 -50.47030 38017 ft 446 kts 222°
2026-04-29 19:18 -26.25772 -50.50533 38020 ft 446 kts 222°
2026-04-29 19:19 -26.31136 -50.54054 38035 ft 448 kts 221°
2026-04-29 19:19 -26.36522 -50.57596 38020 ft 450 kts 221°
2026-04-29 19:20 -26.41871 -50.61113 38025 ft 450 kts 221°
2026-04-29 19:20 -26.47253 -50.64656 38020 ft 449 kts 221°
2026-04-29 19:21 -26.52651 -50.68220 38022 ft 452 kts 221°
2026-04-29 19:21 -26.58066 -50.71801 38024 ft 452 kts 220°
2026-04-29 19:22 -26.63480 -50.75389 38031 ft 453 kts 220°
2026-04-29 19:22 -26.68913 -50.78986 38016 ft 454 kts 220°
2026-04-29 19:23 -26.74347 -50.82586 38016 ft 454 kts 220°
2026-04-29 19:23 -26.79779 -50.86207 38019 ft 454 kts 220°
2026-04-29 19:24 -26.85206 -50.89836 38017 ft 454 kts 219°
2026-04-29 19:24 -26.90625 -50.93459 38035 ft 452 kts 219°
2026-04-29 19:25 -26.96007 -50.97058 38009 ft 450 kts 219°
2026-04-29 19:25 -27.01375 -51.00657 38008 ft 450 kts 219°
2026-04-29 19:26 -27.06749 -51.04264 38007 ft 450 kts 219°
2026-04-29 19:26 -27.12113 -51.07866 38010 ft 449 kts 219°
2026-04-29 19:27 -27.17485 -51.11479 38010 ft 450 kts 219°
2026-04-29 19:27 -27.22839 -51.15081 38016 ft 445 kts 219°
2026-04-29 19:28 -27.28135 -51.18647 38013 ft 443 kts 219°
2026-04-29 19:28 -27.33409 -51.22208 38014 ft 442 kts 219°
2026-04-29 19:29 -27.38651 -51.25751 38012 ft 443 kts 219°
2026-04-29 19:29 -27.43800 -51.29498 38010 ft 439 kts 222°
2026-04-29 19:30 -27.48799 -51.33425 38021 ft 438 kts 223°
2026-04-29 19:30 -27.53767 -51.37346 38018 ft 434 kts 223°
2026-04-29 19:31 -27.58724 -51.41240 38010 ft 434 kts 223°
2026-04-29 19:31 -27.63679 -51.45129 38021 ft 434 kts 223°
2026-04-29 19:32 -27.68632 -51.49016 38017 ft 434 kts 223°
2026-04-29 19:32 -27.73591 -51.52912 37997 ft 434 kts 223°
2026-04-29 19:33 -27.78544 -51.56808 38010 ft 434 kts 223°
2026-04-29 19:33 -27.83497 -51.60708 38007 ft 434 kts 223°
2026-04-29 19:34 -27.88421 -51.64590 38008 ft 434 kts 223°
2026-04-29 19:34 -27.93366 -51.68493 38011 ft 434 kts 223°
2026-04-29 19:35 -27.98310 -51.72400 38008 ft 434 kts 223°
2026-04-29 19:35 -28.03260 -51.76316 38011 ft 434 kts 223°
2026-04-29 19:36 -28.08205 -51.80232 38013 ft 434 kts 223°
2026-04-29 19:36 -28.13147 -51.84165 38014 ft 433 kts 223°
2026-04-29 19:37 -28.18083 -51.88095 38010 ft 434 kts 223°
2026-04-29 19:37 -28.23030 -51.92030 38012 ft 434 kts 223°
2026-04-29 19:38 -28.27977 -51.95966 38018 ft 435 kts 223°
2026-04-29 19:38 -28.32926 -51.99907 38015 ft 434 kts 223°
2026-04-29 19:39 -28.37872 -52.03852 38017 ft 434 kts 223°
2026-04-29 19:39 -28.42812 -52.07795 38016 ft 434 kts 223°
2026-04-29 19:40 -28.47708 -52.11708 38024 ft 433 kts 223°
2026-04-29 19:40 -28.52626 -52.15644 38021 ft 432 kts 223°
2026-04-29 19:41 -28.57546 -52.19587 38014 ft 432 kts 224°
2026-04-29 19:41 -28.62457 -52.23527 38014 ft 432 kts 223°
2026-04-29 19:42 -28.67373 -52.27471 38018 ft 432 kts 223°
2026-04-29 19:42 -28.72290 -52.31409 38016 ft 432 kts 223°
2026-04-29 19:43 -28.77204 -52.35343 38034 ft 431 kts 224°
2026-04-29 19:43 -28.82108 -52.39274 38016 ft 431 kts 224°
2026-04-29 19:44 -28.87014 -52.43211 38013 ft 431 kts 224°
2026-04-29 19:44 -28.91888 -52.47127 38016 ft 431 kts 224°
2026-04-29 19:45 -28.96754 -52.51040 38013 ft 431 kts 224°
2026-04-29 19:45 -29.01659 -52.54988 38021 ft 431 kts 224°
2026-04-29 19:46 -29.06560 -52.58942 38022 ft 431 kts 224°
2026-04-29 19:46 -29.11402 -52.62850 38022 ft 430 kts 224°
2026-04-29 19:47 -29.16289 -52.66799 38023 ft 430 kts 224°
2026-04-29 19:47 -29.21186 -52.70763 38016 ft 430 kts 224°
2026-04-29 19:48 -29.26073 -52.74720 38019 ft 431 kts 224°
2026-04-29 19:48 -29.30964 -52.78691 38021 ft 430 kts 224°
2026-04-29 19:49 -29.35846 -52.82672 38020 ft 430 kts 224°
2026-04-29 19:49 -29.40688 -52.86618 38038 ft 430 kts 224°
2026-04-29 19:50 -29.45559 -52.90585 38024 ft 430 kts 224°
2026-04-29 19:50 -29.50441 -52.94564 38021 ft 430 kts 224°
2026-04-29 19:51 -29.55317 -52.98542 38017 ft 430 kts 224°
2026-04-29 19:51 -29.60200 -53.02528 38020 ft 430 kts 225°
2026-04-29 19:52 -29.65079 -53.06521 38022 ft 430 kts 224°
2026-04-29 19:52 -29.69955 -53.10515 38023 ft 430 kts 224°
2026-04-29 19:53 -29.74833 -53.14515 38020 ft 431 kts 225°
2026-04-29 19:53 -29.79711 -53.18519 38023 ft 431 kts 225°
2026-04-29 19:54 -29.87024 -53.24532 38021 ft 431 kts 225°
2026-04-29 19:54 -29.91893 -53.28540 38018 ft 430 kts 225°
2026-04-29 19:55 -29.96727 -53.32526 38032 ft 430 kts 225°
2026-04-29 19:55 -30.01584 -53.36549 38019 ft 430 kts 225°
2026-04-29 19:56 -30.06431 -53.40568 38023 ft 429 kts 225°
2026-04-29 19:56 -30.11279 -53.44585 38023 ft 429 kts 225°
2026-04-29 19:57 -30.15308 -53.47924 38020 ft 429 kts 225°
2026-04-29 19:57 -30.20976 -53.52626 38020 ft 429 kts 225°
2026-04-29 19:58 -30.25824 -53.56652 38027 ft 429 kts 225°
2026-04-29 19:58 -30.30671 -53.60682 38029 ft 429 kts 225°
2026-04-29 19:59 -30.35522 -53.64698 38032 ft 429 kts 225°
2026-04-29 19:59 -30.40438 -53.68646 38030 ft 431 kts 224°
2026-04-29 20:00 -30.45380 -53.72578 38030 ft 431 kts 224°
2026-04-29 20:00 -30.50284 -53.76487 38027 ft 431 kts 224°
2026-04-29 20:01 -30.55216 -53.80428 38029 ft 430 kts 224°
2026-04-29 20:01 -30.60141 -53.84369 38026 ft 430 kts 224°
2026-04-29 20:02 -30.65072 -53.88321 38059 ft 431 kts 224°
2026-04-29 20:02 -30.68373 -53.90970 38022 ft 431 kts 224°
2026-04-29 20:03 -30.74949 -53.96252 38018 ft 431 kts 224°
2026-04-29 20:03 -30.79884 -54.00221 38027 ft 431 kts 224°
2026-04-29 20:04 -30.83983 -54.03523 38018 ft 431 kts 224°
2026-04-29 20:04 -30.88923 -54.07506 38020 ft 432 kts 224°
2026-04-29 20:05 -30.94578 -54.12071 38018 ft 431 kts 224°
2026-04-29 20:05 -30.98707 -54.15410 38014 ft 431 kts 225°
2026-04-29 20:06 -31.03287 -54.19792 38012 ft 422 kts 231°
2026-04-29 20:06 -31.07532 -54.24433 38011 ft 421 kts 232°
2026-04-29 20:07 -31.11796 -54.29121 38009 ft 421 kts 231°
2026-04-29 20:07 -31.16079 -54.33785 38005 ft 421 kts 231°
2026-04-29 20:08 -31.19645 -54.37655 38006 ft 421 kts 231°
2026-04-29 20:08 -31.24662 -54.43100 38007 ft 421 kts 231°
2026-04-29 20:09 -31.28949 -54.47761 38050 ft 421 kts 231°
2026-04-29 20:09 -31.33237 -54.52428 38011 ft 420 kts 231°
2026-04-29 20:10 -31.37514 -54.57089 38001 ft 420 kts 231°
2026-04-29 20:10 -31.41791 -54.61757 38002 ft 420 kts 231°
2026-04-29 20:11 -31.46076 -54.66420 37998 ft 421 kts 231°
2026-04-29 20:11 -31.50383 -54.71066 37998 ft 421 kts 230°
2026-04-29 20:12 -31.54692 -54.75703 38014 ft 421 kts 230°
2026-04-29 20:12 -31.58997 -54.80338 37983 ft 420 kts 230°
2026-04-29 20:13 -31.63297 -54.84976 38026 ft 419 kts 230°
2026-04-29 20:13 -31.67560 -54.89581 37995 ft 419 kts 230°
2026-04-29 20:14 -31.71853 -54.94224 37992 ft 419 kts 230°
2026-04-29 20:14 -31.76142 -54.98868 37997 ft 419 kts 230°
2026-04-29 20:15 -31.80428 -55.03516 38001 ft 419 kts 230°
2026-04-29 20:15 -31.84708 -55.08163 37994 ft 418 kts 230°
2026-04-29 20:16 -31.88981 -55.12809 37994 ft 418 kts 230°
2026-04-29 20:16 -31.93254 -55.17461 37993 ft 418 kts 230°
2026-04-29 20:17 -31.97526 -55.22118 38040 ft 418 kts 230°
2026-04-29 20:17 -32.01792 -55.26776 38004 ft 418 kts 230°
2026-04-29 20:18 -32.06041 -55.31427 37993 ft 416 kts 230°
2026-04-29 20:18 -32.10281 -55.36093 37994 ft 416 kts 230°
2026-04-29 20:19 -32.14519 -55.40751 37988 ft 416 kts 230°
2026-04-29 20:19 -32.18736 -55.45381 37989 ft 416 kts 230°
2026-04-29 20:20 -32.22975 -55.50039 37988 ft 416 kts 230°
2026-04-29 20:20 -32.27212 -55.54701 37990 ft 415 kts 230°
2026-04-29 20:21 -32.31439 -55.59358 37987 ft 415 kts 230°
2026-04-29 20:21 -32.35661 -55.64018 37987 ft 415 kts 230°
2026-04-29 20:22 -32.39881 -55.68679 37982 ft 415 kts 230°
2026-04-29 20:22 -32.44106 -55.73354 37978 ft 415 kts 230°
2026-04-29 20:23 -32.48326 -55.78028 37977 ft 415 kts 230°
2026-04-29 20:23 -32.52512 -55.82672 37975 ft 414 kts 230°
2026-04-29 20:24 -32.56711 -55.87335 37975 ft 413 kts 230°
2026-04-29 20:24 -32.60903 -55.91999 37974 ft 413 kts 230°
2026-04-29 20:25 -32.65095 -55.96668 37971 ft 413 kts 230°
2026-04-29 20:25 -32.69259 -56.01335 37973 ft 414 kts 230°
2026-04-29 20:26 -32.73451 -56.06037 37970 ft 414 kts 230°
2026-04-29 20:26 -32.77647 -56.10735 37965 ft 414 kts 230°
2026-04-29 20:27 -32.81135 -56.14641 37963 ft 414 kts 230°
2026-04-29 20:27 -32.86010 -56.20106 37962 ft 414 kts 230°
2026-04-29 20:28 -32.90200 -56.24811 37964 ft 414 kts 230°
2026-04-29 20:28 -32.94392 -56.29526 37965 ft 414 kts 230°
2026-04-29 20:29 -32.98569 -56.34234 37960 ft 413 kts 230°
2026-04-29 20:29 -33.02732 -56.38960 37949 ft 413 kts 230°
2026-04-29 20:30 -33.06896 -56.43690 37961 ft 413 kts 230°
2026-04-29 20:30 -33.11063 -56.48424 37944 ft 413 kts 230°
2026-04-29 20:31 -33.15226 -56.53158 37954 ft 414 kts 230°
2026-04-29 20:31 -33.19392 -56.57904 37942 ft 413 kts 230°
2026-04-29 20:32 -33.23541 -56.62636 37944 ft 412 kts 230°
2026-04-29 20:32 -33.26985 -56.66566 37941 ft 412 kts 230°
2026-04-29 20:33 -33.31830 -56.72099 37939 ft 412 kts 230°
2026-04-29 20:33 -33.35976 -56.76840 37952 ft 412 kts 230°
2026-04-29 20:34 -33.40125 -56.81591 37951 ft 413 kts 230°
2026-04-29 20:34 -33.44269 -56.86342 37957 ft 413 kts 229°
2026-04-29 20:35 -33.48408 -56.91094 37953 ft 412 kts 230°
2026-04-29 20:35 -33.52521 -56.95823 37865 ft 409 kts 229°
2026-04-29 20:36 -33.54575 -56.98184 36251 ft 411 kts 229°
2026-04-29 20:36 -33.56645 -57.00573 34613 ft 416 kts 228°
2026-04-29 20:36 -33.58740 -57.02991 32783 ft 419 kts 228°
2026-04-29 20:36 -33.59886 -57.04313 31696 ft 422 kts 228°
2026-04-29 20:37 -33.60172 -57.04642 31427 ft 422 kts 228°
2026-04-29 20:37 -33.62303 -57.07101 29383 ft 428 kts 228°
2026-04-29 20:37 -33.64439 -57.09563 27768 ft 421 kts 228°
2026-04-29 20:37 -33.66533 -57.11974 26346 ft 412 kts 228°
2026-04-29 20:38 -33.68574 -57.14326 25003 ft 402 kts 228°
2026-04-29 20:38 -33.70575 -57.16636 23639 ft 395 kts 228°
2026-04-29 20:38 -33.72536 -57.18906 22126 ft 388 kts 228°
2026-04-29 20:38 -33.74464 -57.21140 20716 ft 381 kts 228°
2026-04-29 20:39 -33.76344 -57.23323 19915 ft 374 kts 228°
2026-04-29 20:39 -33.78224 -57.25513 19553 ft 375 kts 228°
2026-04-29 20:39 -33.80090 -57.27698 19186 ft 373 kts 228°
2026-04-29 20:39 -33.81922 -57.29842 18997 ft 372 kts 228°
2026-04-29 20:40 -33.83777 -57.32009 18950 ft 372 kts 228°
2026-04-29 20:40 -33.85631 -57.34173 18943 ft 372 kts 228°
2026-04-29 20:40 -33.87491 -57.36341 18945 ft 372 kts 228°
2026-04-29 20:40 -33.89344 -57.38502 18941 ft 372 kts 228°
2026-04-29 20:41 -33.91204 -57.40673 18937 ft 371 kts 228°
2026-04-29 20:41 -33.93059 -57.42839 18939 ft 372 kts 228°
2026-04-29 20:41 -33.94917 -57.45009 18936 ft 372 kts 228°
2026-04-29 20:41 -33.96771 -57.47176 18939 ft 372 kts 228°
2026-04-29 20:42 -33.98629 -57.49346 18938 ft 372 kts 228°
2026-04-29 20:42 -34.00484 -57.51515 18935 ft 372 kts 228°
2026-04-29 20:42 -34.02342 -57.53689 18951 ft 372 kts 228°
2026-04-29 20:42 -34.04196 -57.55859 18943 ft 371 kts 228°
2026-04-29 20:43 -34.06046 -57.58026 18942 ft 371 kts 228°
2026-04-29 20:43 -34.07895 -57.60193 18934 ft 371 kts 228°
2026-04-29 20:43 -34.09744 -57.62362 18934 ft 371 kts 228°
2026-04-29 20:43 -34.11590 -57.64528 18933 ft 370 kts 228°
2026-04-29 20:44 -34.13416 -57.66672 18935 ft 370 kts 228°
2026-04-29 20:44 -34.14893 -57.68408 18936 ft 370 kts 228°
2026-04-29 20:45 -34.15606 -57.69247 18931 ft 370 kts 228°
2026-04-29 20:45 -34.17456 -57.71422 18929 ft 371 kts 228°
2026-04-29 20:45 -34.19300 -57.73592 18929 ft 371 kts 228°
2026-04-29 20:45 -34.21097 -57.75708 18931 ft 371 kts 228°
2026-04-29 20:46 -34.22944 -57.77884 18932 ft 370 kts 228°
2026-04-29 20:46 -34.24785 -57.80054 18932 ft 370 kts 228°
2026-04-29 20:46 -34.26629 -57.82230 18933 ft 370 kts 228°
2026-04-29 20:46 -34.28472 -57.84405 18935 ft 370 kts 228°
2026-04-29 20:47 -34.30316 -57.86584 18928 ft 371 kts 228°
2026-04-29 20:47 -34.32162 -57.88756 18928 ft 370 kts 227°
2026-04-29 20:47 -34.34199 -57.90647 18275 ft 371 kts 216°
2026-04-29 20:47 -34.35757 -57.91548 17492 ft 379 kts 205°
2026-04-29 20:48 -34.39218 -57.92418 16136 ft 381 kts 192°
2026-04-29 20:48 -34.41845 -57.92683 15222 ft 376 kts 189°
2026-04-29 20:48 -34.44442 -57.92876 14343 ft 371 kts 189°
2026-04-29 20:48 -34.46991 -57.93074 13399 ft 363 kts 192°
2026-04-29 20:49 -34.49411 -57.93766 12459 ft 352 kts 204°
2026-04-29 20:49 -34.51665 -57.94852 11577 ft 346 kts 207°
2026-04-29 20:49 -34.53793 -57.96011 11045 ft 343 kts 208°
2026-04-29 20:49 -34.55952 -57.97226 10681 ft 342 kts 209°
2026-04-29 20:50 -34.58043 -57.98473 10326 ft 334 kts 214°
2026-04-29 20:50 -34.59998 -58.00071 10049 ft 334 kts 219°
2026-04-29 20:50 -34.61754 -58.01658 9937 ft 297 kts 220°
2026-04-29 20:50 -34.63326 -58.03056 9908 ft 265 kts 220°
2026-04-29 20:51 -34.64786 -58.04321 9666 ft 253 kts 219°
2026-04-29 20:51 -34.66343 -58.05654 8186 ft 291 kts 218°
2026-04-29 20:51 -34.68017 -58.07050 7342 ft 285 kts 217°
2026-04-29 20:51 -34.69577 -58.08318 6596 ft 258 kts 216°
2026-04-29 20:52 -34.70567 -58.09116 6220 ft 245 kts 216°
2026-04-29 20:52 -34.71955 -58.10231 5833 ft 237 kts 216°
2026-04-29 20:52 -34.73303 -58.11313 5462 ft 233 kts 216°
2026-04-29 20:52 -34.74599 -58.12346 5061 ft 208 kts 216°
2026-04-29 20:53 -34.75732 -58.13246 4631 ft 181 kts 217°
2026-04-29 20:53 -34.76749 -58.14057 4218 ft 174 kts 217°
2026-04-29 20:53 -34.77763 -58.14868 3845 ft 175 kts 217°
2026-04-29 20:53 -34.78785 -58.15685 3477 ft 176 kts 217°
2026-04-29 20:54 -34.80804 -58.17296 2993 ft 165 kts 217°
2026-04-29 20:54 -34.81760 -58.18060 3002 ft 167 kts 217°
2026-04-29 20:54 -34.82767 -58.18872 3011 ft 180 kts 217°
2026-04-29 20:55 -34.83835 -58.19743 3001 ft 188 kts 219°
2026-04-29 20:55 -34.84792 -58.20812 3003 ft 182 kts 232°
2026-04-29 20:55 -34.85409 -58.22090 2986 ft 171 kts 249°
2026-04-29 20:55 -34.85654 -58.23474 3000 ft 166 kts 265°
2026-04-29 20:56 -34.85585 -58.24856 3008 ft 162 kts 274°
2026-04-29 20:56 -34.85457 -58.26215 3008 ft 163 kts 274°
2026-04-29 20:56 -34.85322 -58.27606 3014 ft 168 kts 274°
2026-04-29 20:56 -34.85195 -58.29015 3021 ft 171 kts 277°
2026-04-29 20:57 -34.84971 -58.30450 3035 ft 174 kts 278°
2026-04-29 20:57 -34.84729 -58.31874 3003 ft 169 kts 279°
2026-04-29 20:57 -34.84491 -58.33246 2903 ft 164 kts 279°
2026-04-29 20:57 -34.84253 -58.34602 2766 ft 168 kts 278°
2026-04-29 20:58 -34.84004 -58.35989 2725 ft 164 kts 277°
2026-04-29 20:58 -34.83831 -58.37309 2847 ft 154 kts 274°
2026-04-29 20:58 -34.83695 -58.38624 2731 ft 162 kts 274°
2026-04-29 20:58 -34.83569 -58.39979 2378 ft 158 kts 274°
2026-04-29 20:59 -34.83526 -58.41362 2205 ft 173 kts 265°
2026-04-29 20:59 -34.83623 -58.42771 1971 ft 151 kts 262°
2026-04-29 20:59 -34.83697 -58.43918 1629 ft 128 kts 264°
2026-04-29 20:59 -34.83698 -58.45154 1404 ft 155 kts 271°
2026-04-29 21:00 -34.83524 -58.46446 1256 ft 155 kts 279°
2026-04-29 21:00 -34.83244 -58.47695 1139 ft 152 kts 281°
2026-04-29 21:00 -34.83022 -58.48973 873 ft 159 kts 278°
2026-04-29 21:00 -34.82803 -58.50272 573 ft 149 kts 279°
2026-04-29 21:01 -34.82604 -58.51453 217 ft 139 kts 280°
2026-04-29 21:01 -34.82406 -58.52545 74 ft 115 kts 280°
2026-04-29 21:01 -34.82258 -58.53270 74 ft 60 kts 280°
2026-04-29 21:01 -34.82199 -58.53609 72 ft 31 kts 281°
2026-04-29 21:02 -34.82164 -58.53802 70 ft 18 kts 283°
2026-04-29 21:02 -34.82134 -58.53865 69 ft 3 kts 334°
2026-04-29 21:02 -34.82066 -58.53831 66 ft 17 kts 43°
2026-04-29 21:02 -34.81980 -58.53726 69 ft 18 kts 43°
2026-04-29 21:03 -34.81882 -58.53669 70 ft 13 kts 343°
2026-04-29 21:03 -34.81793 -58.53698 71 ft 17 kts 344°
2026-04-29 21:03 -34.81652 -58.53758 69 ft 24 kts 352°
2026-04-29 21:03 -34.81522 -58.53639 72 ft 24 kts 52°
2026-04-29 21:04 -34.81379 -58.53578 68 ft 22 kts 358°
2026-04-29 21:04 -34.81228 -58.53581 70 ft 16 kts
2026-04-29 21:04 -34.81121 -58.53556 68 ft 14 kts 10°
2026-04-29 21:04 -34.81032 -58.53574 67 ft 17 kts 343°
2026-04-29 21:05 -34.80922 -58.53612 70 ft 13 kts 343°
2026-04-29 21:05 -34.80834 -58.53644 69 ft 14 kts 343°
2026-04-29 21:05 -34.80773 -58.53678 66 ft 1 kts 310°
2026-04-29 21:05 -34.80771 -58.53685 65 ft 1 kts 293°
2026-04-29 21:06 -34.80770 -58.53693 72 ft 1 kts 281°
2026-04-29 21:06 -34.80771 -58.53702 65 ft 1 kts 267°
2026-04-29 21:06 -34.80773 -58.53714 66 ft 2 kts 257°
2026-04-29 21:06 -34.80779 -58.53734 73 ft 3 kts 252°
2026-04-29 21:07 -34.80787 -58.53763 69 ft 4 kts 250°
2026-04-29 21:07 -34.80791 -58.53777 67 ft 1 kts 250°
2026-04-29 21:07 -34.80791 -58.53778 67 ft 0 kts 250°